Wind_Speed
17 19 19 19 19 19 19 19 19 18 17 17 17 18 19 19 18 19 20 13 11 7 9 5 5 11 13 13 20 10 2 8 14 9 5 13 7 11 11 17 11 16 20 26 31
18 18 18 19 20 20 20 20 20 20 20 19 18 18 19 21 22 16 5 7 11 9 9 12 10 7 12 11 10 10 4 11 17 20 11 14 17 17 9 12 7 16 13 37 34
18 18 19 20 20 20 21 21 20 19 20 21 22 20 20 19 20 2 4 1 2 7 10 13 9 10 18 19 10 7 8 11 19 24 22 22 13 16 18 5 17 33 39 38 35
19 20 20 21 21 21 22 22 21 21 21 20 20 21 21 16 5 4 7 8 6 9 14 15 12 5 4 3 13 6 14 11 13 8 7 9 15 8 24 15 25 26 33 40 37
21 22 23 23 23 22 22 22 22 21 20 21 21 20 17 11 23 17 17 8 10 13 16 17 13 11 5 6 17 5 6 22 29 30 9 20 18 16 26 15 29 32 37 39 35
21 22 22 23 25 25 24 23 22 22 22 21 20 18 15 11 13 8 11 14 14 17 15 17 13 10 13 9 5 16 15 22 28 27 21 13 8 12 23 22 34 38 38 36 38
23 23 24 24 25 26 26 25 23 21 23 22 22 20 18 31 11 12 17 16 15 15 14 16 18 14 12 9 12 16 10 14 19 13 10 16 8 8 26 34 38 40 40 36 39
27 27 27 27 27 28 28 26 24 22 22 22 22 21 15 29 25 24 26 27 23 17 15 12 13 17 14 13 11 7 3 6 8 10 16 6 14 9 32 38 35 37 41 40 43
25 27 28 28 29 29 29 27 23 20 22 21 18 13 14 19 22 24 27 32 21 18 16 13 16 21 14 3 6 7 6 12 15 14 8 13 11 7 30 35 33 37 40 43 45
25 27 28 28 29 29 28 24 14 12 8 7 6 7 17 15 14 14 20 27 24 17 17 18 10 3 2 4 6 6 7 7 11 20 12 13 10 5 27 31 36 37 38 41 44
27 29 30 29 27 26 22 19 23 5 26 23 31 27 32 31 32 31 20 22 26 20 8 16 1 7 12 10 9 8 9 13 18 22 4 13 9 7 16 23 25 32 36 39 47
28 29 31 30 26 18 13 14 19 21 18 31 33 37 38 36 28 40 26 17 11 16 6 1 10 16 13 9 11 12 13 18 19 18 7 8 8 9 8 11 26 33 35 41 42
27 28 30 31 20 10 17 9 15 22 8 24 26 25 36 34 40 43 30 18 10 14 14 13 20 11 10 13 13 13 8 15 14 19 3 1 8 7 8 5 14 21 42 46 45
26 27 29 32 10 21 8 11 12 17 5 8 5 6 6 13 11 45 45 22 7 21 17 14 17 11 12 14 11 10 17 16 16 6 6 4 5 7 8 10 7 23 26 35 42
26 26 27 28 27 22 12 12 10 3 4 5 6 8 25 10 12 18 48 25 11 7 8 16 14 9 10 18 12 12 16 17 17 5 3 7 3 8 4 8 6 8 23 38 45
25 24 29 25 23 10 10 12 6 5 6 6 8 16 27 25 8 11 5 19 15 11 3 12 20 14 19 20 12 13 6 1 4 4 3 5 4 12 5 6 5 5 20 34 39
23 23 26 24 15 11 11 8 5 2 6 6 17 16 19 15 7 6 6 3 5 4 4 5 6 11 14 8 11 3 5 5 3 3 7 4 1 14 11 7 8 10 22 35 45
24 26 20 13 1 4 1 4 2 4 7 10 9 16 6 16 15 5 7 9 5 5 5 6 11 8 13 10 11 8 8 6 7 4 7 6 6 15 11 24 30 25 30 31 36
25 21 5 5 3 4 4 3 6 4 4 9 17 4 11 18 6 10 6 8 9 7 9 5 13 6 11 16 8 10 4 9 6 2 3 3 9 10 8 1 12 14 20 28 31
26 18 6 5 4 5 4 5 5 5 9 10 6 4 12 9 10 10 7 6 8 3 4 1 4 11 19 11 17 8 4 1 2 3 7 5 5 6 7 4 8 8 18 24 28
20 10 5 2 7 3 2 6 7 18 16 3 8 7 6 4 4 7 7 8 8 12 3 6 6 13 8 9 12 2 3 2 3 5 6 2 6 4 9 3 8 6 18 29 32
8 3 8 10 1 1 2 5 7 21 33 9 6 4 1 4 5 5 5 5 24 9 6 4 2 5 18 16 8 11 11 7 6 7 3 5 5 4 6 4 13 15 15 15 18
15 6 9 11 2 3 7 7 9 10 12 4 5 1 2 3 4 5 6 14 18 6 6 5 2 5 8 9 4 5 6 6 5 3 8 6 6 3 4 9 17 24 24 18 12
5 3 4 9 5 4 5 7 11 18 8 14 4 6 6 6 2 5 8 8 21 11 14 17 1 5 4 10 8 5 3 7 7 2 5 7 5 3 2 11 9 22 28 24 14
2 3 6 3 5 8 2 5 6 8 9 11 9 13 3 5 7 8 6 12 19 7 10 4 4 1 7 5 8 5 4 7 11 3 3 8 11 4 8 11 14 26 24 23 21
3 5 8 8 12 7 5 5 8 7 4 10 6 16 7 4 4 8 5 3 4 19 4 2 7 4 6 12 13 8 15 12 10 6 3 2 2 6 6 5 22 30 30 27 27
2 5 4 6 5 3 2 11 17 15 13 14 6 5 5 8 21 23 22 23 14 6 5 4 2 1 5 6 6 9 8 9 7 7 3 2 4 8 10 3 4 3 11 11 10
Wind_Direction
343 342 341 339 337 335 334 333 331 329 327 326 327 327 325 322 318 310 288 270 243 251 255 261 219 200 210 235 228 197 167 247 258 230 194 174 126 137 139 141 171 186 162 161 158
340 338 336 334 334 332 330 330 329 328 325 321 320 321 322 323 321 317 320 251 224 228 244 267 271 228 223 221 209 179 190 246 219 253 204 225 140 158 148 139 111 121 139 154 162
342 338 334 331 329 328 327 325 324 323 321 320 320 319 319 325 327 31 21 65 243 262 270 265 263 248 251 275 253 217 221 265 281 239 199 186 166 160 146 214 176 148 151 163 171
342 340 337 333 329 325 322 321 321 321 318 314 314 316 318 320 294 227 327 309 276 260 265 261 251 232 254 309 286 286 280 296 320 317 187 187 176 184 167 195 193 174 167 170 178
340 337 335 332 328 325 321 317 314 313 313 311 311 311 314 302 264 280 288 281 277 273 272 250 243 249 244 266 313 297 304 319 318 322 293 175 190 191 200 187 184 172 169 175 184
342 339 336 332 328 324 320 317 314 309 305 304 302 302 302 275 288 286 271 267 281 262 261 234 225 240 285 275 296 299 319 314 316 310 313 169 224 162 219 174 170 174 179 184 187
345 341 337 334 331 325 320 315 311 308 301 294 294 292 274 260 267 281 287 278 293 266 253 238 230 259 289 317 308 325 337 319 303 309 304 331 309 194 186 177 169 176 186 191 198
345 342 339 337 334 328 323 319 314 307 294 288 287 286 264 279 284 266 264 266 262 272 254 219 224 269 282 290 335 351 37 331 285 355 303 339 262 224 167 160 174 178 188 195 201
342 341 338 337 335 328 323 325 323 301 295 289 285 276 272 270 259 262 244 247 249 257 255 243 259 259 268 55 1 2 273 280 306 303 283 289 259 214 170 169 179 184 190 196 205
339 338 336 337 335 328 325 334 340 317 21 345 279 284 258 268 297 284 265 251 232 235 243 254 247 190 68 89 233 254 270 278 271 286 314 306 258 267 171 174 186 189 192 197 205
337 337 335 333 332 329 334 6 11 342 323 300 285 263 279 275 278 270 271 282 231 223 191 240 165 219 222 199 215 226 255 262 274 280 288 276 281 242 211 188 194 191 194 199 207
335 337 336 334 333 329 333 358 356 326 297 294 278 271 267 269 281 268 256 269 215 215 185 179 217 236 231 232 230 237 255 270 279 276 204 272 274 253 249 235 206 196 198 200 206
332 333 334 335 340 353 331 337 339 341 290 291 272 257 258 250 248 259 256 264 247 224 211 223 236 228 218 240 240 247 227 259 255 282 260 292 311 309 296 262 250 225 214 201 197
327 327 332 333 351 339 358 323 310 340 7 284 285 295 267 248 263 248 254 240 258 217 212 221 249 230 232 239 226 255 249 251 265 293 270 85 268 307 283 304 305 291 204 197 194
324 323 327 330 322 327 322 338 342 334 341 272 285 4 325 202 271 246 242 228 238 222 154 230 228 243 241 240 234 243 256 250 253 208 54 322 61 265 340 309 294 261 208 191 192
320 323 323 322 320 318 312 349 1 49 260 307 340 332 345 332 253 253 227 214 231 218 236 211 223 224 237 253 250 254 246 49 59 104 288 250 128 289 232 221 256 261 168 176 180
318 323 319 308 316 313 316 335 45 146 321 299 332 345 327 345 320 190 234 203 181 156 259 266 245 254 245 260 270 217 60 298 323 340 228 225 60 258 274 208 219 209 175 179 183
320 326 318 300 255 299 302 55 157 264 275 306 325 330 360 355 343 43 336 285 228 152 196 197 263 232 242 193 230 234 170 179 217 211 257 125 228 268 250 268 215 191 171 175 184
328 334 4 121 106 131 74 76 214 239 319 343 327 316 340 336 2 14 301 232 239 185 202 208 255 252 246 248 155 268 185 195 137 37 36 207 288 310 305 240 154 165 158 165 183
336 339 90 127 162 136 74 232 239 248 296 300 291 291 325 319 6 3 350 330 13 110 303 216 319 255 244 255 256 168 200 266 8 158 271 288 283 248 303 245 111 128 148 160 155
336 328 166 150 124 171 164 241 282 280 277 261 293 293 297 3 322 330 321 296 354 328 291 195 149 266 323 224 229 292 293 93 128 137 181 245 271 244 249 320 106 92 136 152 160
339 334 165 187 151 229 208 220 279 294 297 271 224 223 68 339 323 7 321 284 338 8 2 311 216 228 231 259 224 212 231 197 195 237 192 156 268 333 289 50 105 94 101 102 139
332 281 192 209 206 265 285 284 275 277 305 304 285 221 96 337 340 303 324 309 334 343 21 313 327 344 333 275 253 204 181 183 137 6 195 155 246 73 303 92 97 94 103 118 127
335 339 334 217 307 355 338 302 325 330 320 343 289 11 5 352 301 285 339 317 320 344 28 354 212 124 219 251 258 210 175 223 141 184 215 204 207 196 68 116 73 101 103 122 146
284 270 14 312 320 322 271 264 297 340 340 6 343 347 307 2 344 354 348 332 332 22 357 90 300 272 254 300 324 251 151 128 338 6 176 267 195 147 181 149 141 130 138 141 144
339 1 338 292 310 343 339 319 317 317 0 309 350 324 321 339 100 300 311 313 288 311 59 71 269 250 324 344 337 79 32 64 78 347 357 49 75 170 220 198 158 157 158 162 171
291 291 302 295 332 12 305 330 335 334 304 297 333 323 346 345 313 289 268 270 248 244 290 235 183 332 285 317 303 31 356 69 91 28 241 34 356 73 30 39 29 157 135 142 137
Height
1549 1546 1544 1542 1540 1538 1536 1533 1531 1528 1526 1523 1521 1519 1516 1513 1511 1509 1506 1507 1508 1509 1510 1512 1514 1517 1517 1515 1515 1517 1526 1527 1518 1501 1498 1490 1488 1491 1493 1497 1496 1497 1498 1503 1511
1549 1546 1543 1541 1538 1536 1534 1531 1529 1527 1524 1521 1519 1516 1514 1510 1507 1504 1503 1503 1504 1507 1509 1509 1511 1513 1514 1511 1512 1513 1521 1505 1497 1487 1489 1489 1483 1486 1492 1493 1494 1494 1499 1504 1508
1548 1545 1542 1539 1536 1533 1531 1528 1526 1524 1522 1519 1517 1515 1512 1509 1505 1502 1502 1503 1504 1505 1505 1506 1508 1510 1507 1504 1503 1502 1507 1489 1483 1476 1479 1481 1481 1482 1485 1492 1487 1486 1495 1502 1505
1546 1543 1541 1537 1534 1531 1528 1526 1524 1521 1519 1516 1514 1512 1510 1510 1512 1500 1500 1501 1502 1502 1502 1503 1503 1506 1502 1502 1499 1500 1492 1487 1484 1482 1483 1480 1477 1481 1479 1478 1479 1482 1484 1495 1502
1544 1541 1538 1535 1532 1528 1525 1523 1520 1518 1516 1513 1511 1509 1509 1508 1499 1499 1498 1498 1499 1499 1498 1499 1500 1501 1501 1497 1495 1494 1488 1483 1479 1474 1473 1476 1474 1472 1474 1477 1478 1485 1488 1491 1497
1543 1539 1536 1532 1528 1525 1521 1519 1516 1514 1511 1509 1507 1506 1507 1505 1496 1495 1495 1495 1495 1495 1495 1495 1495 1498 1497 1494 1496 1488 1486 1481 1474 1470 1466 1474 1472 1474 1472 1475 1480 1484 1487 1490 1489
1541 1537 1534 1530 1526 1521 1518 1514 1512 1510 1507 1505 1503 1502 1500 1493 1494 1492 1493 1493 1492 1490 1490 1491 1494 1497 1494 1493 1489 1486 1488 1478 1470 1469 1467 1466 1469 1468 1464 1468 1475 1480 1482 1485 1489
1538 1535 1531 1527 1523 1518 1514 1510 1507 1504 1501 1500 1499 1497 1490 1488 1489 1489 1487 1486 1490 1489 1488 1488 1491 1494 1493 1490 1488 1491 1490 1500 1468 1472 1466 1473 1482 1458 1460 1466 1474 1475 1477 1480 1483
1537 1533 1528 1524 1519 1514 1509 1506 1502 1498 1495 1494 1494 1493 1485 1482 1479 1480 1480 1479 1484 1487 1487 1487 1489 1489 1490 1494 1505 1503 1515 1502 1483 1470 1472 1470 1472 1456 1460 1462 1466 1468 1470 1473 1478
1536 1531 1527 1522 1517 1511 1505 1502 1497 1494 1492 1490 1490 1494 1482 1477 1475 1475 1478 1478 1479 1482 1484 1485 1485 1485 1490 1501 1525 1513 1510 1499 1494 1468 1471 1467 1464 1452 1455 1457 1457 1462 1466 1467 1470
1534 1529 1524 1520 1516 1511 1505 1500 1500 1496 1494 1497 1489 1486 1483 1471 1471 1467 1471 1475 1476 1479 1481 1480 1489 1494 1485 1485 1487 1493 1497 1498 1481 1467 1477 1472 1464 1451 1449 1454 1456 1459 1463 1462 1461
1531 1526 1522 1517 1513 1509 1507 1507 1509 1511 1491 1484 1480 1476 1475 1474 1470 1458 1468 1473 1472 1473 1474 1483 1488 1477 1475 1476 1481 1485 1492 1490 1474 1465 1472 1465 1463 1453 1449 1446 1448 1450 1454 1454 1457
1529 1525 1520 1515 1510 1509 1507 1506 1505 1502 1495 1469 1465 1463 1459 1466 1461 1456 1462 1464 1466 1470 1471 1481 1467 1469 1476 1476 1480 1481 1490 1484 1483 1462 1460 1461 1470 1458 1443 1442 1440 1441 1441 1443 1448
1528 1523 1519 1512 1512 1508 1505 1505 1504 1500 1505 1479 1464 1459 1457 1458 1457 1447 1446 1461 1460 1462 1465 1468 1461 1469 1471 1475 1474 1491 1466 1470 1473 1477 1492 1463 1504 1469 1450 1445 1437 1431 1435 1439 1442
1526 1522 1518 1514 1511 1507 1506 1503 1501 1501 1528 1471 1461 1459 1458 1453 1438 1434 1437 1452 1456 1455 1459 1463 1462 1464 1469 1464 1465 1474 1459 1463 1463 1471 1479 1475 1493 1474 1452 1450 1439 1428 1426 1429 1434
1523 1519 1514 1514 1509 1507 1504 1502 1501 1514 1521 1476 1464 1462 1454 1438 1432 1430 1435 1443 1447 1451 1449 1452 1450 1453 1456 1451 1455 1455 1461 1464 1470 1480 1500 1481 1486 1466 1462 1447 1438 1427 1424 1425 1433
1519 1516 1512 1509 1508 1505 1504 1503 1517 1525 1484 1479 1473 1465 1460 1448 1437 1432 1436 1445 1455 1467 1466 1454 1452 1446 1447 1456 1449 1454 1475 1503 1502 1505 1506 1473 1483 1461 1438 1438 1431 1425 1424 1425 1426
1515 1512 1507 1505 1506 1505 1505 1507 1521 1499 1492 1478 1472 1470 1465 1453 1443 1439 1446 1452 1441 1450 1464 1473 1474 1449 1438 1450 1455 1457 1468 1501 1512 1510 1495 1471 1486 1449 1428 1414 1420 1420 1422 1427 1430
1512 1508 1504 1505 1505 1505 1506 1522 1515 1498 1486 1484 1476 1476 1471 1460 1458 1454 1451 1443 1442 1440 1460 1465 1458 1437 1434 1434 1442 1449 1463 1453 1480 1482 1495 1482 1460 1434 1420 1411 1410 1417 1421 1426 1429
1511 1506 1505 1506 1506 1506 1509 1515 1502 1490 1487 1484 1492 1478 1481 1469 1467 1465 1460 1445 1443 1440 1440 1445 1465 1437 1430 1429 1428 1441 1437 1464 1481 1490 1501 1487 1473 1464 1435 1422 1415 1420 1421 1423 1424
1512 1507 1505 1505 1505 1507 1516 1510 1494 1485 1485 1483 1482 1482 1476 1477 1470 1470 1463 1450 1444 1442 1440 1437 1450 1449 1438 1436 1440 1439 1450 1449 1460 1476 1493 1501 1478 1436 1431 1423 1420 1421 1420 1423 1424
1512 1510 1504 1506 1507 1507 1509 1498 1490 1483 1476 1476 1473 1471 1472 1472 1471 1467 1467 1457 1446 1444 1448 1439 1446 1461 1438 1422 1420 1422 1431 1439 1461 1473 1473 1476 1472 1428 1429 1426 1422 1428 1432 1433 1437
1512 1508 1504 1504 1512 1509 1499 1493 1489 1483 1475 1471 1468 1465 1465 1469 1475 1465 1460 1449 1446 1446 1447 1444 1454 1466 1446 1434 1421 1426 1423 1427 1439 1457 1464 1477 1469 1430 1429 1425 1429 1432 1437 1442 1449
1514 1512 1503 1502 1502 1503 1502 1494 1488 1478 1474 1470 1466 1463 1466 1470 1466 1467 1461 1448 1444 1444 1440 1443 1455 1460 1476 1455 1436 1426 1413 1419 1434 1452 1452 1455 1445 1435 1434 1432 1432 1433 1431 1439 1448
1514 1512 1511 1512 1502 1502 1500 1494 1490 1484 1476 1472 1470 1469 1468 1472 1472 1473 1462 1453 1440 1440 1442 1450 1462 1455 1445 1436 1423 1411 1411 1416 1430 1435 1446 1437 1438 1433 1433 1429 1431 1430 1433 1434 1437
1515 1514 1512 1508 1504 1502 1496 1494 1491 1482 1481 1477 1476 1471 1468 1471 1476 1478 1470 1462 1456 1443 1446 1449 1461 1453 1440 1431 1420 1414 1421 1417 1444 1447 1439 1434 1437 1429 1430 1431 1424 1423 1426 1430 1437
1515 1514 1513 1507 1504 1504 1501 1499 1491 1485 1477 1475 1473 1472 1469 1469 1467 1463 1459 1455 1451 1449 1446 1453 1458 1455 1450 1439 1428 1443 1443 1440 1452 1455 1451 1447 1453 1439 1443 1440 1438 1437 1435 1438 1443